Home   Weather   Saint George's   Past weeks

Flag for Grenada Past Weather in Saint George's, Grenada — Yesterday and Last 2 Weeks

Now
86 °F

Passing clouds.


Feels Like: 95 °F
Forecast: 75 / 81 °F
Wind: 18 mph from Southeast

Location: Point Salines Airport

Current Time: Apr 23, 2017 at 1:44:06 pm

Latest Report: Apr 23, 2017 at 1:00 pm


Visibility: N/A

Pressure: 29.89 "Hg

Humidity: 70%

Dew Point: 75 °F

Location of Saint George'sLocation

Past Weather in Saint George's — Graph

°F

Saint George's Temperature Yesterday

Maximum temperature yesterday: 86 °F (at 11:00 am)
Minimum temperature yesterday: 81 °F (at 4:00 am)
Average temperature yesterday: 83 °F

High & Low Weather Summary for the Past Weeks

 TemperatureHumidityPressure
High86 °F (Apr 8, 12:00 pm)94% (Apr 20, 9:00 pm)29.98 "Hg (Apr 20, 9:00 pm)
Low77 °F (Apr 9, 4:00 am)55% (Apr 10, 10:00 am)29.83 "Hg (Apr 8, 5:00 pm)
Average82 °F78%29.90 "Hg
* Reported Apr 8 12:00 pm — Apr 23 12:00 pm, Saint George's, Weather by CustomWeather, © 2017

Note: Actual official high and low records may vary slightly from our data, if they occured in-between our weather recording intervals... More about our weather records

Advertising

Saint George's Weather History for the Previous 24 Hours

Scroll right to see more
 ConditionsComfort  
Time TempWeatherWind HumidityBarometerVisibility
12:00 pm
Sun, Apr 23
86 °FPassing clouds.23 mph75%29.92 "HgN/A
11:00 am86 °FScattered clouds.23 mph75%29.95 "HgN/A
10:00 am86 °FPassing clouds.23 mph75%29.95 "HgN/A
9:00 am84 °FPartly sunny.21 mph74%29.95 "HgN/A
8:00 am84 °FPartly sunny.23 mph74%29.95 "HgN/A
7:00 am81 °FPartly sunny.18 mph84%29.92 "HgN/A
6:00 am81 °FScattered clouds.20 mph79%29.92 "HgN/A
5:00 am81 °FPassing clouds.18 mph84%29.89 "HgN/A
4:00 am81 °FPassing clouds.14 mph79%29.86 "HgN/A
2:00 am81 °FPassing clouds.15 mph84%29.89 "HgN/A
1:00 am81 °FPassing clouds.16 mph84%29.92 "HgN/A
11:00 pm
Sat, Apr 22
81 °FPassing clouds.16 mph84%29.95 "HgN/A
10:00 pm81 °FPassing clouds.21 mph84%29.95 "HgN/A
9:00 pm81 °FPassing clouds.20 mph84%29.92 "HgN/A
8:00 pm81 °FPassing clouds.23 mph84%29.92 "HgN/A
7:00 pm81 °FPassing clouds.21 mph84%29.89 "HgN/A
6:00 pm82 °FPassing clouds.22 mph79%29.89 "HgN/A
5:00 pm82 °FPartly sunny.23 mph79%29.89 "HgN/A
4:00 pm84 °FPassing clouds.23 mph79%29.86 "HgN/A
3:00 pm84 °FPassing clouds.25 mph79%29.86 "HgN/A
2:00 pm86 °FPassing clouds.23 mph75%29.89 "HgN/A
1:00 pm86 °FScattered clouds.25 mph75%29.89 "HgN/A
Weather by CustomWeather, © 2017

See weather overviewHow to use our weather pages